Location: Vihti�l�
(61.3833°N, 23.0667°E)
Time: 04:47:22
(UTC+00:00)

METEOR-M - Pass Details

Date: 29 November 2020
Orbit: 817 x 818 km, 98.5° (Epoch: 22 January)

Event Time Altitude Azimuth Distance (km) Brightness Sun altitude
Rises 03:46:45 0° 18° (NNE) 3,362 7.5 -22.3°
Reaches altitude 10° 03:49:06 10° 18° (NNE) 2,426 6.7 -22.0°
Maximum altitude 03:54:29 89° 287° (WNW) 828 4.1 -21.4°
Drops below altitude 10° 03:59:51 10° 201° (SSW) 2,412 6.4 -20.7°
Sets 04:02:11 0° 201° (SSW) 3,341 7.2 -20.5°
